When you browse on this site, cookies collect data to enhance your experience and personalize the content and advertising you see.
Visit our Privacy Policy to learn more. By continuing to use the site, you agree to this use of cookies and data.
  • In Österreich
  • Länderverzeichnis
  • Für 7 Tage
  • Wassertemperatur
  • Wetterkarte
  • News
  • Widgets
  • user-avatar
    Anmelden

    Stündliche Wetter Pandi

    Heute, 17 September, Dienstag

    Zeit Temperatur Niederschläge Wind Luftdruck Luftfeuchtigkeit
    00:00 +23°C° 0.7 mm 1 m/S 679 mmHg 79%
    01:00 +22°C° 0.7 mm 1 m/S 679 mmHg 80%
    02:00 +22°C° 0.9 mm 1 m/S 679 mmHg 81%
    03:00 +22°C° 0.9 mm 1 m/S 679 mmHg 82%
    04:00 +22°C° 0.9 mm 1 m/S 679 mmHg 83%
    05:00 +22°C° 0.2 mm 1 m/S 679 mmHg 81%
    06:00 +23°C° 0.2 mm 1 m/S 680 mmHg 80%
    07:00 +24°C° 0.2 mm 1 m/S 680 mmHg 78%
    08:00 +25°C° 0.2 mm 1 m/S 681 mmHg 76%
    09:00 +27°C° 0.2 mm 1 m/S 681 mmHg 73%
    10:00 +28°C° 0.2 mm 1 m/S 681 mmHg 70%
    11:00 +29°C° 0.7 mm 1 m/S 680 mmHg 69%
    12:00 +29°C° 0.7 mm 1 m/S 680 mmHg 69%
    13:00 +30°C° 0.7 mm 1 m/S 679 mmHg 68%
    14:00 +30°C° 0.8 mm 1 m/S 679 mmHg 68%
    15:00 +30°C° 0.8 mm 1 m/S 678 mmHg 68%
    16:00 +28°C° 0.8 mm 0 m/S 678 mmHg 67%
    17:00 +28°C° 0.5 mm 1 m/S 678 mmHg 70%
    18:00 +27°C° 0.5 mm 1 m/S 678 mmHg 73%
    19:00 +26°C° 0.5 mm 2 m/S 679 mmHg 75%
    20:00 +25°C° 0.9 mm 1 m/S 679 mmHg 78%
    21:00 +25°C° 0.9 mm 1 m/S 679 mmHg 82%
    22:00 +24°C° 0.9 mm 1 m/S 680 mmHg 85%
    23:00 +24°C° 1 mm 1 m/S 680 mmHg 87%

    Morgen, 18 September, Mittwoch

    Zeit Temperatur Niederschläge Wind Luftdruck Luftfeuchtigkeit
    00:00 +23°C° 1 mm 1 m/S 679 mmHg 89%
    01:00 +21°C° 1 mm 0 m/S 679 mmHg 92%
    02:00 +21°C° 1.6 mm 0 m/S 679 mmHg 93%
    03:00 +21°C° 1.6 mm 0 m/S 679 mmHg 95%
    04:00 +20°C° 1.6 mm 0 m/S 679 mmHg 97%
    05:00 +21°C° 1.1 mm 0 m/S 679 mmHg 96%
    06:00 +21°C° 1.1 mm 0 m/S 679 mmHg 96%
    07:00 +21°C° 1.1 mm 0 m/S 680 mmHg 96%
    08:00 +21°C° 0.2 mm 0 m/S 680 mmHg 93%
    09:00 +24°C° 0.2 mm 1 m/S 680 mmHg 90%
    10:00 +25°C° 0.2 mm 1 m/S 680 mmHg 87%
    11:00 +26°C° 0.4 mm 1 m/S 680 mmHg 84%
    12:00 +27°C° 0.4 mm 1 m/S 679 mmHg 80%
    13:00 +28°C° 0.4 mm 1 m/S 678 mmHg 77%
    14:00 +28°C° 0.3 mm 1 m/S 678 mmHg 77%
    15:00 +27°C° 0.3 mm 1 m/S 677 mmHg 77%
    16:00 +25°C° 0.3 mm 0 m/S 677 mmHg 76%
    17:00 +25°C° 0.5 mm 0 m/S 677 mmHg 79%
    18:00 +24°C° 0.5 mm 0 m/S 677 mmHg 81%
    19:00 +23°C° 0.5 mm 0 m/S 678 mmHg 84%
    20:00 +25°C° 0.9 mm 1 m/S 678 mmHg 84%
    21:00 +24°C° 0.9 mm 1 m/S 678 mmHg 85%
    22:00 +24°C° 0.9 mm 1 m/S 679 mmHg 85%
    23:00 +24°C° 0.4 mm 1 m/S 679 mmHg 85%

    übermorgen, 19 September, Donnerstag

    Zeit Temperatur Niederschläge Wind Luftdruck Luftfeuchtigkeit
    00:00 +24°C° 0.4 mm 1 m/S 678 mmHg 85%
    01:00 +21°C° 0.4 mm 0 m/S 678 mmHg 85%
    02:00 +21°C° 0.2 mm 0 m/S 678 mmHg 86%
    03:00 +21°C° 0.2 mm 0 m/S 678 mmHg 86%
    04:00 +21°C° 0.2 mm 0 m/S 678 mmHg 87%
    05:00 +21°C° 0.1 mm 0 m/S 678 mmHg 87%
    06:00 +21°C° 0.1 mm 0 m/S 679 mmHg 88%
    07:00 +21°C° 0.1 mm 0 m/S 679 mmHg 89%
    08:00 +22°C° 0.2 mm 0 m/S 680 mmHg 86%
    09:00 +25°C° 0.2 mm 1 m/S 680 mmHg 83%
    10:00 +26°C° 0.2 mm 1 m/S 680 mmHg 80%
    11:00 +27°C° 0.6 mm 1 m/S 679 mmHg 79%
    12:00 +28°C° 0.6 mm 1 m/S 679 mmHg 77%
    13:00 +28°C° 0.6 mm 1 m/S 678 mmHg 76%
    14:00 +28°C° 0.7 mm 1 m/S 678 mmHg 77%
    15:00 +28°C° 0.7 mm 1 m/S 677 mmHg 77%
    16:00 +25°C° 0.7 mm 0 m/S 677 mmHg 78%
    17:00 +24°C° 1.7 mm 0 m/S 677 mmHg 81%
    18:00 +25°C° 1.7 mm 1 m/S 677 mmHg 85%
    19:00 +24°C° 1.7 mm 1 m/S 678 mmHg 88%
    20:00 +24°C° 0.4 mm 1 m/S 678 mmHg 87%
    21:00 +24°C° 0.4 mm 1 m/S 679 mmHg 86%
    22:00 +24°C° 0.4 mm 1 m/S 679 mmHg 85%
    23:00 +24°C° 0.4 mm 1 m/S 679 mmHg 86%

    20 September, Freitag

    Zeit Temperatur Niederschläge Wind Luftdruck Luftfeuchtigkeit
    00:00 +23°C° 0.4 mm 1 m/S 679 mmHg 87%
    01:00 +21°C° 0.4 mm 0 m/S 679 mmHg 88%
    02:00 +21°C° 0.4 mm 0 m/S 679 mmHg 88%
    03:00 +21°C° 0.4 mm 0 m/S 679 mmHg 89%
    04:00 +20°C° 0.4 mm 0 m/S 678 mmHg 89%
    05:00 +21°C° 0.2 mm 0 m/S 679 mmHg 89%
    06:00 +21°C° 0.2 mm 0 m/S 680 mmHg 88%
    07:00 +21°C° 0.2 mm 0 m/S 681 mmHg 87%
    08:00 +22°C° 0.4 mm 0 m/S 681 mmHg 85%
    09:00 +25°C° 0.4 mm 1 m/S 681 mmHg 84%
    10:00 +26°C° 0.4 mm 1 m/S 682 mmHg 83%
    11:00 +26°C° 1.6 mm 1 m/S 681 mmHg 84%
    12:00 +26°C° 1.6 mm 1 m/S 680 mmHg 86%
    13:00 +25°C° 1.6 mm 1 m/S 679 mmHg 87%
    14:00 +26°C° 0.6 mm 1 m/S 679 mmHg 86%
    15:00 +26°C° 0.6 mm 1 m/S 679 mmHg 84%
    16:00 +26°C° 0.6 mm 1 m/S 678 mmHg 82%
    17:00 +25°C° 0.5 mm 1 m/S 678 mmHg 84%
    18:00 +24°C° 0.5 mm 1 m/S 679 mmHg 86%
    19:00 +24°C° 0.5 mm 1 m/S 679 mmHg 88%
    20:00 +23°C° 0.2 mm 1 m/S 680 mmHg 88%
    21:00 +23°C° 0.2 mm 1 m/S 680 mmHg 87%
    22:00 +23°C° 0.2 mm 1 m/S 680 mmHg 87%
    23:00 +22°C° 0 mm 1 m/S 680 mmHg 86%

    21 September, Samstag

    Zeit Temperatur Niederschläge Wind Luftdruck Luftfeuchtigkeit
    00:00 +22°C° 0 mm 1 m/S 680 mmHg 85%
    01:00 +22°C° 0 mm 1 m/S 680 mmHg 83%
    02:00 +22°C° 0 mm 1 m/S 680 mmHg 83%
    03:00 +22°C° 0 mm 1 m/S 679 mmHg 83%
    04:00 +22°C° 0 mm 1 m/S 679 mmHg 83%
    05:00 +22°C° 0 mm 1 m/S 680 mmHg 82%
    06:00 +21°C° 0 mm 0 m/S 680 mmHg 82%
    07:00 +22°C° 0 mm 0 m/S 681 mmHg 81%
    08:00 +25°C° 0.2 mm 1 m/S 681 mmHg 78%
    09:00 +26°C° 0.2 mm 1 m/S 681 mmHg 75%
    10:00 +28°C° 0.2 mm 1 m/S 681 mmHg 72%
    11:00 +28°C° 0.6 mm 1 m/S 681 mmHg 70%
    12:00 +29°C° 0.6 mm 1 m/S 680 mmHg 68%
    13:00 +30°C° 0.6 mm 1 m/S 679 mmHg 66%
    14:00 +29°C° 0.9 mm 1 m/S 679 mmHg 68%
    15:00 +29°C° 0.9 mm 1 m/S 678 mmHg 70%
    16:00 +28°C° 0.9 mm 1 m/S 678 mmHg 72%
    17:00 +27°C° 0.7 mm 1 m/S 678 mmHg 74%
    18:00 +26°C° 0.7 mm 1 m/S 678 mmHg 76%
    19:00 +24°C° 0.7 mm 2 m/S 678 mmHg 79%
    20:00 +24°C° 0.5 mm 2 m/S 679 mmHg 79%
    21:00 +23°C° 0.5 mm 2 m/S 679 mmHg 79%
    22:00 +23°C° 0.5 mm 2 m/S 680 mmHg 80%
    23:00 +21°C° 0.8 mm 2 m/S 679 mmHg 81%

    22 September, Sonntag

    Zeit Temperatur Niederschläge Wind Luftdruck Luftfeuchtigkeit
    00:00 +21°C° 0.8 mm 2 m/S 679 mmHg 81%
    01:00 +22°C° 0.8 mm 1 m/S 679 mmHg 82%
    02:00 +22°C° 0.6 mm 1 m/S 679 mmHg 82%
    03:00 +22°C° 0.6 mm 1 m/S 679 mmHg 83%
    04:00 +22°C° 0.6 mm 1 m/S 679 mmHg 83%
    05:00 +22°C° 0.3 mm 1 m/S 679 mmHg 83%
    06:00 +23°C° 0.3 mm 1 m/S 680 mmHg 83%
    07:00 +21°C° 0.3 mm 0 m/S 681 mmHg 83%
    08:00 +24°C° 0.4 mm 1 m/S 681 mmHg 79%
    09:00 +26°C° 0.4 mm 1 m/S 681 mmHg 75%
    10:00 +27°C° 0.4 mm 1 m/S 682 mmHg 71%
    11:00 +28°C° 0.4 mm 1 m/S 681 mmHg 71%
    12:00 +28°C° 0.4 mm 1 m/S 680 mmHg 70%
    13:00 +29°C° 0.4 mm 1 m/S 679 mmHg 69%
    14:00 +29°C° 0.2 mm 1 m/S 679 mmHg 68%
    15:00 +29°C° 0.2 mm 1 m/S 679 mmHg 66%
    16:00 +28°C° 0.2 mm 1 m/S 678 mmHg 65%
    17:00 +27°C° 0.3 mm 1 m/S 679 mmHg 69%
    18:00 +25°C° 0.3 mm 2 m/S 679 mmHg 74%
    19:00 +23°C° 0.3 mm 2 m/S 679 mmHg 79%
    20:00 +23°C° 0.2 mm 2 m/S 679 mmHg 77%
    21:00 +21°C° 0.2 mm 2 m/S 680 mmHg 75%
    22:00 +21°C° 0.2 mm 2 m/S 680 mmHg 73%
    23:00 +21°C° 0.2 mm 2 m/S 680 mmHg 72%
    Mehr zeigen